HG8GL Weather Reports


Display with metric or nautical units.
time (UTC)temp
F
wind
direction
speed
MPH
gust
MPH
rain 1hr
in
rain 24hr
in
rain mn
in
humidity
%
barometer
mb
20260504191507 61 158 0.0 0.0 0.00 0.00 0.00 34 1016.0
20260504191008 61 161 0.0 0.0 0.00 0.00 0.00 34 1016.0
20260504190009 62 158 0.0 0.0 0.00 0.00 0.00 34 1016.0
20260504185507 63 158 0.0 0.0 0.00 0.00 0.00 33 1016.0
20260504184807 63 158 0.0 0.0 0.00 0.00 0.00 32 1016.0
20260504184009 64 158 0.0 0.0 0.00 0.00 0.00 31 1015.9
20260504183509 65 158 0.0 0.0 0.00 0.00 0.00 30 1015.0
20260504182509 66 158 0.0 0.0 0.00 0.00 0.00 29 1015.1
20260504181507 67 158 0.0 0.0 0.00 0.00 0.00 27 1016.0
20260504181008 68 158 0.0 0.0 0.00 0.00 0.00 27 1016.0
20260504180007 68 158 0.0 0.0 0.00 0.00 0.00 26 1016.0
20260504175509 69 158 0.0 0.0 0.00 0.00 0.00 26 1015.8
20260504175008 69 158 0.0 0.0 0.00 0.00 0.00 26 1015.0
20260504174508 70 158 0.0 0.0 0.00 0.00 0.00 25 1015.0
20260504174008 70 158 0.0 0.0 0.00 0.00 0.00 25 1015.0
20260504173508 71 158 0.0 0.0 0.00 0.00 0.00 25 1015.0
20260504173010 72 158 0.0 0.0 0.00 0.00 0.00 24 1015.0
20260504172009 73 158 0.0 0.0 0.00 0.00 0.00 24 1015.0
20260504171508 73 158 0.0 0.0 0.00 0.00 0.00 24 1015.0
20260504171009 74 149 0.0 0.0 0.00 0.00 0.00 23 1015.0
20260504151009 81 165 0.0 0.0 0.00 0.00 0.00 20 1015.2
20260504141011 82 97 0.0 0.0 0.00 0.00 0.00 20 1016.0
20260504081510 73 173 0.0 0.0 0.00 0.00 0.00 32 1020.0
20260504050007 46 158 0.0 0.0 0.00 0.00 0.00 66 1020.0
20260504045508 45 158 0.0 0.0 0.00 0.00 0.00 66 1020.0
20260504045008 45 158 0.0 0.0 0.00 0.00 0.00 66 1020.0
20260504044508 44 158 0.0 0.0 0.00 0.00 0.00 67 1020.0
20260504044009 44 202 0.0 0.0 0.00 0.00 0.00 67 1020.0
20260504043509 43 225 0.0 0.0 0.00 0.00 0.00 67 1020.0
20260504043008 43 248 0.0 0.0 0.00 0.00 0.00 67 1020.0
20260504042508 43 248 0.0 0.0 0.00 0.00 0.00 67 1019.9
20260504042008 43 248 0.0 0.0 0.00 0.00 0.00 66 1019.0
20260504041508 43 248 0.0 0.0 0.00 0.00 0.00 66 1019.0
20260504041008 43 248 0.0 0.0 0.00 0.00 0.00 66 1019.0
20260504040008 43 248 0.0 0.0 0.00 0.00 0.00 66 1019.0
20260504034507 43 185 0.0 0.0 0.00 0.00 0.00 65 1019.0
20260504034008 43 158 0.0 0.0 0.00 0.00 0.00 65 1019.1
20260504033509 43 158 0.0 0.0 0.00 0.00 0.00 65 1020.0
20260504033009 43 158 0.0 0.0 0.00 0.00 0.00 64 1020.0
20260504032508 43 158 0.0 0.0 0.00 0.00 0.00 63 1019.9
20260504032008 43 158 0.0 0.0 0.00 0.00 0.00 63 1019.0
20260504031508 43 158 0.0 0.0 0.00 0.00 0.00 63 1019.0
20260504031008 43 158 0.0 0.0 0.00 0.00 0.00 62 1019.1
20260504030007 43 248 0.0 0.0 0.00 0.00 0.00 61 1020.0
20260504025507 43 248 0.0 0.0 0.00 0.00 0.00 61 1019.9
20260504025008 44 248 0.0 0.0 0.00 0.00 0.00 60 1019.0
20260504024507 44 248 0.0 0.0 0.00 0.00 0.00 60 1019.0
20260504024008 44 248 0.0 0.0 0.00 0.00 0.00 59 1019.1
20260504023508 45 248 0.0 0.0 0.00 0.00 0.00 59 1020.0
20260504023008 45 248 0.0 0.0 0.00 0.00 0.00 58 1020.0
20260504022507 45 248 0.0 0.0 0.00 0.00 0.00 57 1019.9
20260504022008 45 248 0.0 0.0 0.00 0.00 0.00 57 1019.0
20260504021507 45 248 0.0 0.0 0.00 0.00 0.00 57 1019.0
20260504021009 45 248 0.0 0.0 0.00 0.00 0.00 56 1019.0
20260504020007 45 248 0.0 0.0 0.00 0.00 0.00 56 1019.0
20260504015507 45 248 0.0 0.0 0.00 0.00 0.00 56 1019.0
20260504015008 46 214 0.0 0.0 0.00 0.00 0.00 55 1019.0
20260504014508 46 248 0.0 0.0 0.00 0.00 0.00 55 1019.0
20260504014008 46 248 0.0 0.0 0.00 0.00 0.00 55 1019.0
20260504013008 46 248 0.0 0.0 0.00 0.00 0.00 54 1019.0
20260504012508 46 248 0.0 0.0 0.00 0.00 0.00 54 1019.0
20260504012008 46 248 0.0 0.0 0.00 0.00 0.00 53 1019.0
20260504011509 46 248 0.0 0.0 0.00 0.00 0.00 52 1019.0
20260504011008 46 248 0.0 0.0 0.00 0.00 0.00 52 1019.0
20260504005009 47 158 0.0 0.0 0.00 0.00 0.00 51 1019.0
20260504004508 48 158 0.0 0.0 0.00 0.00 0.00 51 1019.0
20260504004009 48 158 0.0 0.0 0.00 0.00 0.00 51 1019.0
20260504003009 48 202 0.0 0.0 0.00 0.00 0.00 49 1019.0
20260504002508 49 204 0.0 0.0 0.00 0.00 0.00 49 1019.0
20260504002008 49 225 0.0 0.0 0.00 0.00 0.00 49 1019.0
20260504001508 49 225 0.0 0.0 0.00 0.00 0.00 49 1019.0
20260504001008 49 225 0.0 0.0 0.00 0.00 0.00 49 1019.1
20260504000008 50 225 0.0 0.0 0.00 0.00 0.00 48 1020.0
20260503235508 50 225 0.0 0.0 0.00 0.00 0.00 48 1019.9
20260503235008 50 225 0.0 0.0 0.00 0.00 0.00 48 1019.0
20260503234507 50 240 0.0 0.0 0.00 0.00 0.00 47 1019.0
20260503234008 51 242 0.0 0.0 0.00 0.00 0.00 47 1019.0
20260503233510 51 229 0.0 0.0 0.00 0.00 0.00 47 1019.0
20260503233008 51 241 0.0 0.0 0.00 0.00 0.00 47 1019.0
20260503232507 51 223 0.0 0.0 0.00 0.00 0.00 47 1019.0
20260503232010 51 228 0.0 0.0 0.00 0.00 0.00 47 1019.0
20260503230008 52 210 0.0 0.0 0.00 0.00 0.00 47 1019.0
20260503225507 52 218 0.0 0.0 0.00 0.00 0.00 47 1019.0
20260503225010 52 226 0.0 0.0 0.00 0.00 0.00 47 1019.0
20260503224509 52 230 0.0 0.0 0.00 0.00 0.00 47 1019.0
20260503224010 52 219 0.0 0.0 0.00 0.00 0.00 46 1019.2
20260503223508 52 225 0.0 0.0 0.00 0.00 0.00 46 1020.0
20260503222508 53 202 0.0 0.0 0.00 0.00 0.00 46 1019.9
20260503222009 53 212 0.0 0.0 0.00 0.00 0.00 46 1019.0
20260503221008 52 206 0.0 0.0 0.00 0.00 0.00 46 1019.1
20260503220010 52 190 0.0 0.0 0.00 0.00 0.00 46 1020.0
20260503215009 52 163 0.0 0.0 0.00 0.00 0.00 46 1020.0
20260503214510 52 164 0.0 0.0 0.00 0.00 0.00 46 1020.0
20260503214010 52 179 0.0 0.0 0.00 0.00 0.00 46 1019.9
20260503213007 52 189 0.0 0.0 0.00 0.00 0.00 46 1019.0
20260503212507 53 183 0.0 0.0 0.00 0.00 0.00 46 1019.1
20260503212009 53 192 0.0 0.0 0.00 0.00 0.00 46 1020.0
20260503211508 53 202 0.0 0.0 0.00 0.00 0.00 46 1020.0
20260503211010 53 201 0.0 0.0 0.00 0.00 0.00 46 1020.0
20260503210010 53 201 0.0 0.0 0.00 0.00 0.00 46 1020.0
20260503205510 53 190 0.0 0.0 0.00 0.00 0.00 46 1019.9
20260503205010 53 185 0.0 0.0 0.00 0.00 0.00 46 1019.0
20260503204510 53 165 0.0 0.0 0.00 0.00 0.00 45 1019.0
20260503203509 53 159 0.0 0.0 0.00 0.00 0.00 45 1019.0
20260503203007 53 158 0.0 0.0 0.00 0.00 0.00 45 1019.0
20260503202508 53 158 0.0 0.0 0.00 0.00 0.00 45 1019.0
20260503202007 54 158 0.0 0.0 0.00 0.00 0.00 45 1019.0
20260503201507 54 158 0.0 0.0 0.00 0.00 0.00 44 1019.0
20260503200008 54 158 0.0 0.0 0.00 0.00 0.00 44 1020.0
20260503195508 55 158 0.0 0.0 0.00 0.00 0.00 43 1019.9
20260503195008 55 158 0.0 0.0 0.00 0.00 0.00 43 1019.0
20260503194010 55 158 0.0 0.0 0.00 0.00 0.00 42 1019.0
20260503193509 55 158 0.0 0.0 0.00 0.00 0.00 42 1019.0
20260503193008 56 158 0.0 0.0 0.00 0.00 0.00 42 1019.0
20260503192507 56 158 0.0 0.0 0.00 0.00 0.00 41 1019.0